Regional Weather Roundup
Issued by NWS

Home | Current Version | Previous Version | Text Only | Print | Product List | Glossary On
Versions: 1 2 3 4 5 6 7 8 9 10 11 12 13 14 15 16 17 18 19 20 21 22 23 24 25 26 27 28 29 30 31 32 33 34 35 36 37 38 39 40 41 42 43 44 45 46 47 48 49 50
000
ASUS43 KLMK 290202
RWRKY
KENTUCKY REGIONAL WEATHER ROUNDUP
NATIONAL WEATHER SERVICE LOUISVILLE KY
1000 PM EDT SUN AUG 28 2016

NOTE "FAIR" INDICATES FEW OR NO CLOUDS BELOW 12,000 FEET
WITH NO SIGNIFICANT WEATHER AND/OR OBSTRUCTIONS TO VISIBILITY.

KYZ001>023-026-027-061>063-070>075-290300-
WESTERN AND SOUTH CENTRAL KENTUCKY

CITY           SKY/WX    TMP DP  RH WIND       PRES   REMARKS
PADUCAH        CLEAR     79  72  79 CALM      30.10R
HENDERSON      CLEAR     79  73  83 CALM      30.11R
OWENSBORO      PTCLDY    86  75  69 E12       30.13R THUNDER HX  95
HOPKINSVILLE   CLEAR     82  76  79 E3        30.12R HX  90
BOWLING GREEN  CLOUDY    75  70  84 E6        30.15R
GLASGOW        PTCLDY    74  67  79 SW5       30.16R
$$

KYZ024-025-028>034-038-045-046-053-290300-
NORTH CENTRAL KENTUCKY

CITY           SKY/WX    TMP DP  RH WIND       PRES   REMARKS
LOUISVILLE/SDF MOCLDY    78  69  73 NE5       30.16R
LOUISVILLE/LOU PTCLDY    76  69  79 CALM      30.18R
FORT KNOX      CLEAR     75  69  81 E5        30.16R
$$

KYZ035>037-039>044-047>052-055>060-089>105-290300-
NORTHEAST KENTUCKY

CITY           SKY/WX    TMP DP  RH WIND       PRES   REMARKS
LEXINGTON      PTCLDY    72  67  84 N9        30.19R
COVINGTON      CLOUDY    71  70  96 S5        30.22F
FRANKFORT      PTCLDY    74  69  85 N6        30.19R
$$

KYZ054-064>069-076>088-106>120-290300-
SOUTHEAST KENTUCKY

CITY           SKY/WX    TMP DP  RH WIND       PRES   REMARKS
JACKSON        MOCLDY    72  68  87 CALM      30.19R
LONDON         CLOUDY    72  66  81 CALM      30.19R
SOMERSET       PTCLDY    70  70 100 CALM      30.19R
MIDDLESBORO    PTCLDY    72  70  95 CALM      30.19R
MONTICELLO     CLOUDY   N/A N/A N/A NE7       30.20R
$$




USA.gov is the U.S. government's official web portal to all federal, state and local government web resources and services.